Location: Bayshore Village Mobile Home Park
(26.6945°N, 81.8642°W)
Time: 16:24:36
(UTC+00:00)

GPS 2-17 Rocket1 - Pass Details

Date: 17 June 2021
Orbit: 570 x 658 km, 20.3° (Epoch: 27 July)

Event Time Altitude Azimuth Distance (km) Brightness Sun altitude
Exits shadow 09:48:05 13° 237° (WSW) 1,773 4.7 -9.8°
Maximum altitude 09:50:56 22° 193° (SSW) 1,366 4.4 -9.2°
Drops below altitude 10° 09:54:31 10° 143° (SE) 1,997 5.7 -8.5°
Sets 09:57:21 0° 128° (SE) 2,920 6.8 -8.0°
